Weather History for KMMK - March, 2013

Change the Weather History Date:

Tuesday, March 12, 2013

  Actual Average (KHVN) Record (KHVN)
Temperature  
Mean Temperature 48 °F -  
Max Temperature 53 °F 42 °F 67 °F (1973)
Min Temperature 43 °F 28 °F 11 °F (1984)
Degree Days  
Heating Degree Days 16    
Moisture  
Dew Point 47 °F    
Average Humidity 89    
Maximum Humidity 100    
Minimum Humidity 74    
Precipitation  
Precipitation 1.72 in - - ()
Sea Level Pressure  
Sea Level Pressure 29.88 in    
Wind  
Wind Speed 8 mph (South)    
Max Wind Speed 18 mph    
Max Gust Speed 31 mph    
Visibility 6 miles    
Events Rain    
Averages and records for this station are not official NWS values.
T = Trace of Precipitation, MM = Missing Value Source: NWS Daily Summary

Daily Weather History Graph

Daily Weather History Graph

Search for Another Location

Airport or City:

Trip Planner

Search our weather history database for the weather conditions in past years. The results will help you decide how hot, cold, wet, or windy it might be!

Date:

Astronomy

Mar. 12, 2013 Rise Set
Actual Time 7:07 AM EDT 6:54 PM EDT
Civil Twilight 6:40 AM EDT 7:22 PM EDT
Nautical Twilight 6:08 AM EDT 7:54 PM EDT
Astronomical Twilight 5:35 AM EDT 8:27 PM EDT
Moon 7:11 AM EDT (3/12) 8:08 PM EDT (3/12)
Length of Visible Light 12h 42m
Length of Day
11h 47m
New Moon, 1% of the Moon is Illuminated
Mar 12
New Moon
Mar 19
First Quarter
Mar 27
Full
Apr 3
Last Quarter
Apr 10
New

Hourly Weather History & Observations

Time (EDT) Temp. Windchill Dew Point Humidity Pressure Visibility Wind Dir Wind Speed Gust Speed Precip Events Conditions
12:27 AM 46.4 °F 45.2 °F 42.8 °F 87% 30.12 in 10.0 mi South 3.5 mph - N/A   Overcast
12:53 AM 46.0 °F 42.5 °F 43.0 °F 89% 30.12 in 10.0 mi South 6.9 mph - N/A   Overcast
1:53 AM 46.0 °F 42.5 °F 43.0 °F 89% 30.08 in 10.0 mi South 6.9 mph - N/A   Mostly Cloudy
2:12 AM 46.4 °F 42.9 °F 42.8 °F 87% 30.07 in 10.0 mi South 6.9 mph - N/A   Partly Cloudy
2:53 AM 46.9 °F - 44.1 °F 90% 30.06 in 10.0 mi SSW 5.8 mph - N/A   Partly Cloudy
3:53 AM 46.0 °F - 43.0 °F 89% 30.03 in 10.0 mi Calm Calm - N/A   Scattered Clouds
4:53 AM 48.0 °F - 45.0 °F 89% 30.03 in 10.0 mi SE 4.6 mph - N/A   Overcast
5:53 AM 50.0 °F - 45.0 °F 83% 30.02 in 10.0 mi SSE 4.6 mph - N/A   Mostly Cloudy
6:53 AM 51.1 °F - 45.0 °F 80% 30.00 in 10.0 mi South 6.9 mph - 0.00 in   Overcast
7:53 AM 51.1 °F - 46.0 °F 83% 29.99 in 10.0 mi South 8.1 mph - 0.00 in Rain Light Rain
8:53 AM 51.1 °F - 46.9 °F 86% 30.00 in 8.0 mi SSE 5.8 mph - 0.00 in Rain Light Rain
9:53 AM 51.1 °F - 48.0 °F 89% 29.99 in 5.0 mi SSE 9.2 mph - 0.02 in Rain Light Rain
10:53 AM 51.1 °F - 48.9 °F 92% 29.97 in 3.0 mi SSE 8.1 mph - 0.05 in Rain Rain
11:51 AM 51.8 °F - 48.2 °F 88% 29.93 in 2.5 mi SSE 9.2 mph - 0.11 in Rain Rain
11:53 AM 51.1 °F - 48.9 °F 92% 29.94 in 2.5 mi SSE 5.8 mph - 0.11 in Rain Rain
12:09 PM 51.8 °F - 48.2 °F 88% 29.92 in 3.0 mi South 8.1 mph - 0.04 in Rain Rain
12:16 PM 51.8 °F - 50.0 °F 94% 29.92 in 3.0 mi South 10.4 mph - 0.05 in Rain Rain
12:53 PM 52.0 °F - 50.0 °F 93% 29.90 in 4.0 mi South 6.9 mph - 0.12 in Rain Rain
1:24 PM 51.8 °F - 50.0 °F 94% 29.89 in 3.0 mi South 5.8 mph - 0.05 in Rain Rain
1:44 PM 51.8 °F - 50.0 °F 94% 29.88 in 2.0 mi South 8.1 mph - 0.10 in Rain Heavy Rain
1:53 PM 52.0 °F - 50.0 °F 93% 29.87 in 2.0 mi South 11.5 mph 16.1 mph 0.14 in Rain Heavy Rain
2:15 PM 53.6 °F - 50.0 °F 88% 29.85 in 3.0 mi SSE 11.5 mph 18.4 mph 0.06 in Rain Rain
2:50 PM 53.6 °F - 51.8 °F 94% 29.82 in 2.5 mi South 11.5 mph 18.4 mph 0.14 in Rain Rain
2:53 PM 53.1 °F - 51.1 °F 93% 29.82 in 2.5 mi SSE 11.5 mph 18.4 mph 0.15 in Rain Rain
3:53 PM 53.1 °F - 50.0 °F 89% 29.78 in 2.5 mi SSE 9.2 mph 18.4 mph 0.23 in Rain Heavy Rain
4:53 PM 53.1 °F - 51.1 °F 93% 29.72 in 2.5 mi SSE 11.5 mph 20.7 mph 0.29 in Rain Heavy Rain
5:16 PM 53.6 °F - 51.8 °F 94% 29.71 in 1.8 mi SSE 13.8 mph 23.0 mph 0.13 in Rain Heavy Rain
5:53 PM 53.1 °F - 51.1 °F 93% 29.70 in 1.0 mi South 15.0 mph 20.7 mph 0.49 in Rain Heavy Rain
6:24 PM 53.6 °F - 51.8 °F 94% 29.71 in 1.5 mi South 16.1 mph 21.9 mph 0.10 in Rain Rain
6:53 PM 53.1 °F - 51.1 °F 93% 29.71 in 1.8 mi South 18.4 mph 31.1 mph 0.12 in Rain Light Rain
7:02 PM 53.6 °F - 51.8 °F 94% 29.71 in 2.5 mi South 12.7 mph 26.5 mph 0.00 in Rain Light Rain
7:09 PM 53.6 °F - 51.8 °F 94% 29.72 in 3.0 mi South 13.8 mph 21.9 mph 0.00 in Rain Light Rain
7:53 PM 52.0 °F - 50.0 °F 93% 29.73 in 6.0 mi South 10.4 mph 18.4 mph 0.00 in   Overcast
8:03 PM 51.8 °F - 50.0 °F 94% 29.74 in 5.0 mi South 8.1 mph 20.7 mph N/A   Overcast
8:53 PM 51.1 °F - 50.0 °F 96% 29.75 in 4.0 mi SSE 6.9 mph - N/A   Overcast
9:53 PM 50.0 °F - 50.0 °F 100% 29.77 in 4.0 mi Variable 6.9 mph - N/A   Overcast
10:11 PM 46.4 °F 40.4 °F 41.0 °F 81% 29.78 in 10.0 mi NNW 13.8 mph 24.2 mph N/A   Overcast
10:53 PM 45.0 °F 41.2 °F 39.0 °F 80% 29.80 in 10.0 mi NNW 6.9 mph - N/A   Partly Cloudy
11:18 PM 44.6 °F 40.2 °F 37.4 °F 76% 29.81 in 10.0 mi NNW 8.1 mph - N/A   Mostly Cloudy
11:27 PM 44.6 °F 39.7 °F 37.4 °F 76% 29.81 in 10.0 mi North 9.2 mph - N/A   Scattered Clouds
11:53 PM 43.0 °F 38.2 °F 35.1 °F 74% 29.82 in 10.0 mi NNW 8.1 mph - N/A   Mostly Cloudy